Doha, Qatar

3:52 AM AST on January 23, 2017 (GMT +0300)
Doha

Weather History for OTBD - May, 2013

Change the Weather History Date:

Wednesday, May 29, 2013

  Actual Average Record
Temperature  
Mean Temperature 93 °F -  
Max Temperature 101 °F 106 °F 113 °F (1998)
Min Temperature 85 °F 82 °F 78 °F (2001)
Cooling Degree Days 28    
Growing Degree Days 43 (Base 50)    
Moisture  
Dew Point 60 °F    
Average Humidity 33    
Maximum Humidity 62    
Minimum Humidity 12    
Precipitation  
Precipitation 0.00 in 0.00 in - ()
Sea Level Pressure  
Sea Level Pressure 29.70 in    
Wind  
Wind Speed 11 mph ()    
Max Wind Speed 22 mph    
Max Gust Speed 33 mph    
Visibility 5.2 miles    
Events      
Averages and records for this station are not official NWS values.
T = Trace of Precipitation, MM = Missing Value Source: Averaged Metar Reports

Daily Weather History Graph

Daily Weather History Graph

Search for Another Location

Airport or City:

Trip Planner

Search our weather history database for the weather conditions in past years. The results will help you decide how hot, cold, wet, or windy it might be!

Date:

Astronomy

May. 29, 2013 Rise Set
Actual Time 4:43 AM AST 6:18 PM AST
Civil Twilight 4:18 AM AST 6:43 PM AST
Nautical Twilight 3:48 AM AST 7:14 PM AST
Astronomical Twilight 3:16 AM AST 7:46 PM AST
Moon 10:23 PM AST (5/29) 9:02 AM AST (5/29)
Length of Visible Light 14h 25m
Length of Day
13h 34m
Waning Gibbous, 76% of the Moon is Illuminated
May 29
Waning Gibbous
May 31
Last Quarter
Jun 8
New
Jun 16
First Quarter
Jun 23
Full

Hourly Weather History & Observations

Time (AST) Temp. Heat Index Dew Point Humidity Pressure Visibility Wind Dir Wind Speed Gust Speed Precip Events Conditions
12:00 AM 86.0 °F 91.8 °F 71.6 °F 62% 29.68 in - North 8.1 mph - N/A   Clear
12:30 AM 87.8 °F 91.4 °F 68.0 °F 52% 29.65 in - North 9.2 mph - N/A   Clear
1:00 AM 87.8 °F 90.4 °F 66.2 °F 49% 29.65 in - NNW 8.1 mph - N/A   Clear
1:30 AM 87.8 °F 90.4 °F 66.2 °F 49% 29.65 in - NNW 8.1 mph - N/A   Clear
2:00 AM 87.8 °F 90.4 °F 66.2 °F 49% 29.65 in - NNW 11.5 mph - N/A   Clear
2:30 AM 89.6 °F 89.5 °F 60.8 °F 38% 29.65 in - NNW 8.1 mph - N/A   Clear
3:00 AM 89 °F - 62 °F 30% 29.67 in 7 mi NNW 8.1 mph - -  
3:00 AM 89.6 °F 90.1 °F 62.6 °F 40% 29.65 in - NNW 8.1 mph - N/A   Clear
3:30 AM 87.8 °F 88.5 °F 62.6 °F 43% 29.65 in - NNW 5.8 mph - N/A   Clear
4:00 AM 86.0 °F 89.4 °F 68.0 °F 55% 29.68 in - NW 6.9 mph - N/A   Clear
4:30 AM 86.0 °F 90.4 °F 69.8 °F 58% 29.68 in - NW 4.6 mph - N/A   Clear
5:00 AM 87.8 °F 90.4 °F 66.2 °F 49% 29.68 in - NNW 8.1 mph - N/A   Clear
5:30 AM 87.8 °F 90.4 °F 66.2 °F 49% 29.68 in - NNW 6.9 mph - N/A   Clear
6:00 AM 87.8 °F 90.4 °F 66.2 °F 49% 29.71 in - NW 8.1 mph - N/A   Clear
6:30 AM 87.8 °F 92.6 °F 69.8 °F 55% 29.71 in - NW 10.4 mph - N/A   Clear
7:00 AM 89.6 °F 93.4 °F 68.0 °F 49% 29.71 in - NNW 8.1 mph - N/A   Clear
8:00 AM 93.2 °F 94.9 °F 64.4 °F 38% 29.74 in - NW 10.4 mph - N/A   Clear
8:30 AM 95.0 °F 97.0 °F 64.4 °F 36% 29.74 in 5.6 mi North 6.9 mph - N/A   Unknown
9:00 AM 96 °F - 63 °F 24% 29.76 in 6 mi North 9.2 mph - -   Widespread Dust
9:00 AM 96.8 °F 98.0 °F 62.6 °F 32% 29.74 in 5.6 mi North 9.2 mph - N/A   Unknown
9:30 AM 98.6 °F 100.0 °F 62.6 °F 30% 29.74 in 5.6 mi North 11.5 mph - N/A   Unknown
10:00 AM 98.6 °F 98.5 °F 59.0 °F 27% 29.74 in 5.6 mi North 15.0 mph - N/A   Unknown
10:30 AM 98.6 °F 100.0 °F 62.6 °F 30% 29.74 in 5.6 mi North 15.0 mph - N/A   Unknown
11:00 AM 98.6 °F 101.0 °F 64.4 °F 32% 29.74 in 5.6 mi NNW 13.8 mph - N/A   Unknown
11:30 AM 100.4 °F 103.6 °F 64.4 °F 31% 29.71 in 4.3 mi North 13.8 mph - N/A   Unknown
12:00 PM 100.4 °F 102.4 °F 62.6 °F 29% 29.71 in 4.3 mi North 16.1 mph - N/A   Unknown
1:00 PM 98.6 °F 102.8 °F 66.2 °F 35% 29.71 in 4.3 mi NNE 16.1 mph - N/A   Unknown
1:30 PM 100.4 °F 104.9 °F 66.2 °F 33% 29.71 in 4.3 mi North 19.6 mph - N/A   Unknown
2:00 PM 98.6 °F 101.0 °F 64.4 °F 32% 29.68 in 5.0 mi North 17.3 mph - N/A   Unknown
2:30 PM 98.6 °F 98.5 °F 59.0 °F 27% 29.68 in 5.0 mi North 20.7 mph - N/A   Unknown
3:00 PM 100 °F - 60 °F 18% 29.69 in 6 mi North 20.7 mph - -   Widespread Dust
3:00 PM 100.4 °F 101.3 °F 60.8 °F 27% 29.68 in 5.6 mi North 20.7 mph - N/A   Unknown
3:30 PM 98.6 °F 100.0 °F 62.6 °F 30% 29.98 in 5.6 mi North 18.4 mph - N/A   Unknown
4:00 PM 98.6 °F 101.0 °F 64.4 °F 32% 29.68 in 5.0 mi North 16.1 mph - N/A   Unknown
4:30 PM 98.6 °F 102.8 °F 66.2 °F 35% 29.68 in 4.3 mi North 17.3 mph - N/A   Unknown
5:00 PM 100.4 °F 98.8 °F 55.4 °F 22% 29.68 in 3.7 mi North 20.7 mph - N/A   Unknown
5:30 PM 98.6 °F - 51.8 °F 21% 29.68 in 5.0 mi North 18.4 mph - N/A   Unknown
6:00 PM 96.8 °F 94.4 °F 53.6 °F 23% 29.68 in - North 16.1 mph - N/A   Clear
6:30 PM 96.8 °F - 50.0 °F 20% 29.68 in - NNW 20.7 mph - N/A   Clear
7:00 PM 95.0 °F - 48.2 °F 20% 29.68 in - NNW 21.9 mph - N/A   Clear
7:30 PM 95.0 °F - 50.0 °F 22% 29.68 in - NNW 18.4 mph 29.9 mph N/A   Clear
8:00 PM 93.2 °F - 50.0 °F 23% 29.71 in - NNW 18.4 mph - N/A   Clear
8:30 PM 93.2 °F - 48.2 °F 21% 29.71 in - NNW 20.7 mph - N/A   Clear
9:00 PM 93 °F - 46 °F 12% 29.72 in 6 mi NNW 17.3 mph - -  
9:00 PM 93.2 °F - 46.4 °F 20% 29.71 in - NNW 17.3 mph 33.4 mph N/A   Clear
9:30 PM 93.2 °F - 42.8 °F 17% 29.71 in - NNW 15.0 mph 26.5 mph N/A   Clear
10:00 PM 93.2 °F - 44.6 °F 19% 29.71 in - NNW 13.8 mph 26.5 mph N/A   Clear
10:30 PM 93.2 °F - 44.6 °F 19% 29.71 in - NNW 16.1 mph - N/A   Clear
11:00 PM 93.2 °F - 42.8 °F 17% 29.68 in - NNW 17.3 mph - N/A   Clear